Location: Goheenville
(40.9070°N, 79.3720°W)
Time: 02:46:40
(UTC-04:00)

Daily predictions for brighter satellites

Satellite Brightness Start Highest point End
(mag) Time Altitude Azimuth Time Altitude Azimuth Time Altitude Azimuth
Lacrosse 5 3.6 00:03:43 10° NW 00:06:08 28° NW 00:06:08 28° NW
Mayak 1.7 00:15:39 10° NNE 00:15:54 11° NNE 00:15:54 11° NNE
SeaSat 1 4.4 00:22:25 24° NNE 00:22:25 24° NNE 00:25:12 10° N
Cosmos 2369 Rocket 4.1 00:34:44 10° NW 00:37:17 21° WNW 00:37:17 21° WNW
CZ-2C R/B 4.1 00:40:08 10° N 00:43:50 32° NW 00:43:50 32° NW
ATLAS 5 CENTAUR R/B 4.3 00:56:29 10° NW 00:58:46 21° WNW 00:58:46 21° WNW
ADEOS Rocket 3.7 01:24:31 10° N 01:29:47 55° N 01:29:47 55° N
Mayak 1.8 01:52:06 10° NNW 01:52:31 12° NNW 01:52:31 12° NNW
CZ-2D R/B 4.4 02:02:23 10° ENE 02:04:37 14° E 02:04:37 14° E
SL-16 R/B 4.2 02:08:59 23° E 02:11:01 27° ENE 02:16:07 10° N
Lacrosse 4 Rocket 4.0 02:12:05 10° NNW 02:13:36 20° N 02:13:36 20° N
Cosmos 909 Rocket 4.4 02:13:32 10° NNW 02:18:52 61° N 02:18:52 61° N
Lacrosse 5 rocket 4.0 02:25:23 18° NE 02:25:23 18° NE 02:26:29 10° NE
Cosmos 1980 Rocket 3.6 02:19:29 10° N 02:24:28 32° ENE 02:25:22 30° ENE
Cosmos 1697 Rocket 3.6 02:20:34 10° NNW 02:24:59 46° NNE 02:24:59 46° NNE
Resurs 1-4 Rocket 3.7 02:30:13 10° NE 02:33:57 27° E 02:33:57 27° E
Cosmos 2082 Rocket 2.9 02:38:11 51° NNE 02:38:11 51° NNE 02:42:21 10° NNE
ATLAS CENTAUR R/B 4.5 02:35:19 60° SSW 02:38:19 80° SE 03:07:01 10° NE
Cosmos 1607 4.3 02:55:32 56° NW 02:55:32 56° NW 03:01:41 10° NNE
NPP 4.1 02:52:11 10° NNE 02:56:42 57° NE 02:56:42 57° NE
ARIANE 5 R/B 3.9 02:58:36 10° NE 03:03:13 31° E 03:03:25 31° E
Cosmos 1833 Rocket 3.3 03:08:48 48° NW 03:08:48 48° NW 03:13:32 10° NNE
Cosmos 2195 Rocket 4.4 03:06:10 10° N 03:12:21 77° E 03:12:35 76° ESE
SL-08 R/B 3.9 03:28:01 50° NNW 03:28:01 50° NNW 03:31:40 10° NNW
Cosmos 1092 Rocket 4.1 03:21:27 10° NNW 03:27:05 57° WNW 03:27:05 57° WNW
Cosmos 44 4.5 03:24:45 10° NNW 03:29:47 46° NE 03:34:57 10° SE
H-2A R/B 3.6 03:26:05 10° N 03:29:01 41° N 03:29:01 41° N
Cosmos 1726 Rocket 4.4 03:26:38 10° N 03:30:29 47° ENE 03:30:29 47° ENE
Cosmos 2142 Rocket 4.3 03:30:35 78° SW 03:30:58 82° W 03:37:08 10° N
IRS-1D 3.5 03:28:26 10° NNE 03:33:40 79° ESE 03:33:43 79° ESE
ATLAS 3B R/B 3.3 03:32:22 41° SSE 03:34:13 49° ESE 03:40:53 10° NE
Cosmos 1655 Rocket 4.2 03:31:10 10° N 03:37:33 71° E 03:40:05 38° SSE
Cosmos 2360 4.4 03:36:04 10° NNW 03:40:53 57° WNW 03:40:53 57° WNW
Cosmos 1428 Rocket 4.4 03:36:34 10° N 03:42:46 87° E 03:44:18 54° S
NOSS 3-2 (A) 4.4 03:42:39 30° SE 03:44:21 35° ESE 03:50:02 10° NE
NOAA 9 4.5 03:40:21 10° NNE 03:45:47 81° WNW 03:46:08 76° SW
CZ-2D R/B 2.0 03:40:30 10° N 03:45:51 68° WNW 03:45:57 68° W
AQUA 4.3 03:41:49 10° N 03:45:49 48° NW 03:45:49 48° NW
Cosmos 1766 4.1 03:43:03 10° N 03:46:07 48° NNE 03:46:07 48° NNE
Cosmos 2228 3.4 03:44:34 10° N 03:48:48 58° E 03:48:58 58° E
Okean 1-7 Rocket 4.1 03:52:28 49° NW 03:52:28 49° NW 03:56:09 10° N
Cosmos 1066 Rocket 4.3 03:52:30 56° W 03:52:32 56° WNW 03:57:52 10° N
ADEOS 4.1 03:49:01 10° NNE 03:54:07 52° E 03:55:50 37° SSE
SL-16 R/B 2.7 03:54:04 51° WSW 03:54:15 52° W 04:00:22 10° NNW
ADEOS II 3.5 03:51:06 10° NNE 03:55:49 33° E 03:58:59 18° SSE
Cosmos 1763 Rocket 3.4 03:55:40 69° S 03:56:21 87° ESE 04:01:42 10° NNE
Cosmos 2058 Rocket 3.3 03:53:01 10° N 03:57:27 69° E 03:58:07 58° SE
ERS-1 4.3 03:54:10 10° N 03:59:07 69° WNW 03:59:25 67° W
Cosmos 1375 Rocket 4.5 03:57:52 54° SW 03:59:31 84° WNW 04:06:07 10° NNE
BREEZE-M DEB (TANK) 4.2 03:39:47 10° WNW 03:59:32 75° NNE 04:03:59 10° ESE
Cosmos 1606 Rocket 4.1 03:55:34 10° NNW 03:58:49 46° NW 03:58:49 46° NW
IRS-1C 4.4 03:55:38 10° N 04:00:47 50° WNW 04:01:08 49° W
Lacrosse 5 rocket 3.6 04:01:03 16° NW 04:02:01 17° NNW 04:04:43 10° NNE
Cosmos 2360 Rocket 4.1 04:01:03 10° N 04:05:56 29° NE 04:10:47 10° ESE
Cosmos 44 Rocket 3.8 04:02:17 10° NNW 04:07:25 63° NE 04:12:33 10° SE
SJ 16-02 3.4 04:04:03 10° N 04:07:53 28° ENE 04:11:42 10° SE
Cosmos 1980 Rocket 3.1 04:03:22 10° NW 04:07:04 32° WNW 04:07:04 32° WNW
BREEZE-M R/B 2.7 04:09:56 70° N 04:09:56 70° N 04:14:35 10° ENE
Cosmos 724 4.4 04:08:41 47° WSW 04:09:58 58° NW 04:15:42 10° NNE
Cosmos 1892 Rocket 3.7 04:13:42 56° WNW 04:13:42 56° WNW 04:17:58 10° N
Resurs 1-4 Rocket 2.8 04:09:45 10° N 04:14:32 37° WNW 04:15:03 36° W
Cosmos 1758 4.1 04:13:40 10° N 04:17:33 50° E 04:20:02 20° SSE
Cosmos 1898 Rocket 4.0 04:14:03 10° NW 04:18:18 38° W 04:18:18 38° W
Cosmos 2082 Rocket 4.0 04:20:01 15° WNW 04:21:29 17° NW 04:25:02 10° N
Meteor 1-21 4.1 04:19:27 41° SSW 04:21:32 78° W 04:27:10 10° N
SL-16 R/B 2.1 04:18:51 10° NNW 04:24:33 85° WSW 04:30:13 10° SSE
Cosmos 1937 Rocket 3.6 04:21:02 10° NNW 04:26:01 48° WSW 04:26:49 44° SW
Cosmos 2279 Rocket 4.5 04:25:34 36° WSW 04:27:13 42° WNW 04:33:09 10° N
ERBS 3.5 04:31:08 30° SE 04:31:37 32° SE 04:34:40 10° ENE
BREEZE-M DEB (TANK) 3.1 04:32:56 28° ESE 04:32:56 28° ESE 04:34:27 10° ENE
Helios 1A Rocket 3.4 04:31:20 10° N 04:35:18 43° WNW 04:35:51 41° W
UNKNOWN OBJECT B 2.9 04:33:11 10° N 04:36:55 51° WNW 04:37:20 48° W
Cosmos 990 Rocket 4.4 04:33:01 10° NW 04:37:45 38° WSW 04:38:28 36° WSW
Cosmos 1378 3.7 04:35:54 25° SSE 04:37:53 56° E 04:41:36 10° NNE
Cosmos 2322 Rocket 2.1 04:32:57 10° NNW 04:38:35 69° WSW 04:44:08 10° SSE
Cosmos 1470 3.3 04:37:19 10° N 04:41:17 59° E 04:45:11 10° SSE
USA 238 DEB 3.9 04:38:41 29° WSW 04:42:13 58° NW 04:49:06 10° NNE
ARIANE 5 R/B 3.4 04:37:39 10° N 04:42:16 33° WNW 04:43:45 28° W
USA 238 3.9 04:38:47 29° WSW 04:42:19 58° NW 04:49:13 10° NNE
Cosmos 372 Rocket 4.3 04:41:17 10° NNW 04:46:30 67° ENE 04:51:38 10° SSE
CZ-2D R/B 4.0 04:44:36 10° N 04:48:28 40° WNW 04:49:32 33° WSW
Cosmos 1833 4.4 04:46:46 19° SSW 04:51:01 76° ESE 04:56:48 10° NNE
Cosmos 292 Rocket 4.1 04:50:52 30° SW 04:52:53 49° WNW 04:57:34 10° N
Cosmos 1707 3.1 04:50:02 15° S 04:53:05 64° E 04:56:57 10° NNE
Cosmos 836 Rocket 4.4 04:51:58 21° SSW 04:55:32 88° WNW 05:00:46 10° NNE
Cosmos 1842 4.5 04:56:56 24° W 04:57:21 24° WNW 05:00:37 10° NNW
CZ-4B R/B 4.1 04:55:32 10° NNE 04:59:29 41° E 05:03:12 10° S
Okean O Rocket 3.7 04:59:16 10° NE 05:02:59 26° E 05:06:38 10° SSE
DNEPR-1 R/B 4.1 05:08:19 23° WSW 05:10:36 43° NW 05:15:03 10° NNE
Cosmos 44 4.4 05:06:28 10° NW 05:10:49 26° WSW 05:15:14 10° SSW
Cosmos 2266 Rocket 4.4 05:05:56 10° NNW 05:11:34 41° W 05:17:17 10° SSW
USA 161 4.3 05:09:31 10° SE 05:11:56 22° ENE 05:14:17 10° NNE
PSLV R/B 3.5 05:08:51 10° NNE 05:13:05 87° ESE 05:17:16 10° SSW
Cosmos 1244 Rocket 4.5 05:08:22 10° N 05:14:33 90° E 05:20:44 10° S
NOSS 3-2 (C) 3.5 05:14:35 17° SW 05:19:17 70° NW 05:25:51 10° NNE
PSLV R/B 2.9 05:19:42 23° WSW 05:21:21 69° SSE 05:24:20 10° E
Cosmos 540 Rocket 4.1 05:18:28 17° SW 05:21:57 39° WNW 05:26:48 10° N
Cosmos 1953 Rocket 4.2 05:18:28 10° S 05:22:52 59° E 05:27:15 10° NNE
PSLV R/B 3.9 05:19:35 10° NNE 05:23:26 75° ESE 05:27:09 10° S
Cosmos 2322 3.8 05:18:47 10° NNW 05:24:32 89° ENE 05:30:16 10° SSE
ATLAS 3B R/B 3.5 05:19:38 15° WSW 05:25:04 38° NW 05:31:28 10° NNE
Cosmos 2237 4.3 05:19:32 10° NNW 05:25:18 87° ENE 05:31:01 10° SSE
Cosmos 1953 3.1 05:22:22 10° NNW 05:25:59 31° W 05:29:32 10° SSW
Cosmos 1812 Rocket 4.0 05:23:00 10° NNW 05:27:13 41° W 05:31:22 10° SSW
Cosmos 1400 Rocket 3.8 05:25:02 10° S 05:28:48 48° E 05:32:39 10° NNE
ATLAS CENTAUR R/B 1.5 05:25:10 10° NW 05:29:37 74° WSW 05:34:19 10° SSE
S3M 4.3 05:24:04 10° S 05:30:08 72° E 05:36:14 10° NNE
MOS 1-B 4.4 05:25:29 10° NNE 05:31:20 82° WNW 05:37:08 10° SSW
NOSS 3-2 (A) 4.1 05:30:03 13° WSW 05:35:02 42° NW 05:41:17 10° NNE
ADEOS II 3.0 05:30:53 10° N 05:35:26 31° WNW 05:39:56 10° SW
Cosmos 1758 Rocket 3.5 05:33:43 10° S 05:38:02 78° W 05:42:25 10° N
CENTAUR R/B 2.6 05:37:16 10° SSW 05:43:07 80° ESE 05:49:55 10° NE
USA 215 3.3 05:37:59 10° NE 05:44:32 77° NW 05:51:02 10° SW
SJ 16-02 2.4 05:42:44 10° NW 05:46:21 25° W 05:49:57 10° SSW
Cosmos 2360 Rocket 2.6 05:44:47 10° NW 05:50:01 41° WSW 05:55:14 10° S
Aureole 2 Rocket 4.0 05:54:19 10° NW 05:56:51 18° W 05:59:17 10° SW
CZ-4B R/B 3.8 05:55:25 10° N 05:59:16 84° WNW 06:03:18 10° SSW
Meteor 2-5 Rocket 3.9 05:55:12 10° SSW 06:00:35 54° WNW 06:06:06 10° N
Cosmos 2219 3.4 05:55:21 10° SSW 06:01:02 81° ESE 06:06:49 10° NNE
